Powrót do katalogu

THORAD AGENA D DEB

AktywnySSO
NORAD 5146·DEBRIS·🇺🇸 United States

Wystrzelony Apr 8, 1970 z Vandenberg Space Force Base

Loading…

Następne Przeloty (najbliższe 24 godziny)

TLE

ŚwieżeSource: Space-Track

Epoka: Sep 14, 2026, 13:29 UTC

1 05146U 70025JQ  26257.56226872  .00000036  00000-0  10534-3 0  9995
2 05146 100.0196 124.6889 0043042 152.5132 237.4267 13.62775497801488

Śledź THORAD AGENA D DEB w czasie rzeczywistym z AllMySat

Download on the App Store